Time,TemperatureF,DewpointF,PressureIn,WindDirection,WindDirectionDegrees,WindSpeedMPH,WindSpeedGustMPH,Humidity,HourlyPrecipIn,Conditions,Clouds,dailyrainin,SoftwareType,DateUTC
2013-04-11 00:00:00,51.5,49.0,30.08,ESE,112,2.0,7.0,91,0.00,,,0.00,LWC V2.00 B2112,2013-04-11 07:00:00,
2013-04-11 00:10:00,51.5,49.0,30.08,ESE,112,2.0,7.0,91,0.00,,,0.00,LWC V2.00 B2112,2013-04-11 07:10:00,
2013-04-11 00:20:00,51.5,49.0,30.08,ESE,112,2.0,7.0,91,0.00,,,0.00,LWC V2.00 B2112,2013-04-11 07:20:00,
2013-04-11 00:30:00,51.2,48.7,30.07,ESE,112,1.0,7.0,91,0.00,,,0.00,LWC V2.00 B2112,2013-04-11 07:30:00,
2013-04-11 00:40:00,51.2,48.7,30.07,ESE,112,1.0,7.0,91,0.00,,,0.00,LWC V2.00 B2112,2013-04-11 07:40:00,
2013-04-11 00:50:00,51.2,48.7,30.07,ESE,112,1.0,7.0,91,0.00,,,0.00,LWC V2.00 B2112,2013-04-11 07:50:00,
2013-04-11 01:00:00,51.2,48.7,30.07,ESE,112,1.0,7.0,91,0.00,,,0.00,LWC V2.00 B2112,2013-04-11 08:00:00,
2013-04-11 01:10:00,51.1,48.8,30.08,East,90,2.0,8.0,92,0.00,,,0.00,LWC V2.00 B2112,2013-04-11 08:10:00,
2013-04-11 01:20:00,51.1,48.8,30.08,East,90,2.0,8.0,92,0.00,,,0.00,LWC V2.00 B2112,2013-04-11 08:20:00,
2013-04-11 01:30:00,51.1,48.8,30.08,East,90,2.0,8.0,92,0.00,,,0.00,LWC V2.00 B2112,2013-04-11 08:30:00,
2013-04-11 01:40:00,50.5,48.3,30.07,ESE,112,1.0,5.0,92,0.00,,,0.00,LWC V2.00 B2112,2013-04-11 08:40:00,
2013-04-11 01:50:00,50.5,48.3,30.07,ESE,112,1.0,5.0,92,0.00,,,0.00,LWC V2.00 B2112,2013-04-11 08:50:00,
2013-04-11 02:00:00,50.5,48.3,30.07,ESE,112,1.0,5.0,92,0.00,,,0.00,LWC V2.00 B2112,2013-04-11 09:00:00,
2013-04-11 02:10:00,49.7,47.5,30.06,East,90,1.0,5.0,92,0.00,,,0.00,LWC V2.00 B2112,2013-04-11 09:10:00,
2013-04-11 02:20:00,49.7,47.5,30.06,East,90,1.0,5.0,92,0.00,,,0.00,LWC V2.00 B2112,2013-04-11 09:20:00,
2013-04-11 02:30:00,49.7,47.5,30.06,East,90,1.0,5.0,92,0.00,,,0.00,LWC V2.00 B2112,2013-04-11 09:30:00,
2013-04-11 02:40:00,49.3,47.4,30.05,East,90,1.0,6.0,93,0.00,,,0.00,LWC V2.00 B2112,2013-04-11 09:40:00,
2013-04-11 02:50:00,49.3,47.4,30.05,East,90,1.0,6.0,93,0.00,,,0.00,LWC V2.00 B2112,2013-04-11 09:50:00,
2013-04-11 03:00:00,49.3,47.4,30.05,East,90,1.0,6.0,93,0.00,,,0.00,LWC V2.00 B2112,2013-04-11 10:00:00,
2013-04-11 03:10:00,49.1,47.2,30.05,NW,315,2.0,9.0,93,0.00,,,0.00,LWC V2.00 B2112,2013-04-11 10:10:00,
2013-04-11 03:20:00,49.1,47.2,30.05,NW,315,2.0,9.0,93,0.00,,,0.00,LWC V2.00 B2112,2013-04-11 10:20:00,
2013-04-11 03:30:00,49.1,47.2,30.05,NW,315,2.0,9.0,93,0.00,,,0.00,LWC V2.00 B2112,2013-04-11 10:30:00,
2013-04-11 03:40:00,49.1,47.2,30.02,SE,135,2.0,8.0,93,0.00,,,0.00,LWC V2.00 B2112,2013-04-11 10:40:00,
2013-04-11 03:50:00,49.1,47.2,30.02,SE,135,2.0,8.0,93,0.00,,,0.00,LWC V2.00 B2112,2013-04-11 10:50:00,
2013-04-11 04:00:00,49.1,47.2,30.02,SE,135,2.0,8.0,93,0.00,,,0.00,LWC V2.00 B2112,2013-04-11 11:00:00,
2013-04-11 04:10:00,49.2,47.0,30.02,ESE,112,2.0,8.0,92,0.00,,,0.00,LWC V2.00 B2112,2013-04-11 11:10:00,
2013-04-11 04:20:00,49.2,47.0,30.02,ESE,112,2.0,8.0,92,0.00,,,0.00,LWC V2.00 B2112,2013-04-11 11:20:00,
2013-04-11 04:30:00,49.2,47.0,30.02,ESE,112,2.0,8.0,92,0.00,,,0.00,LWC V2.00 B2112,2013-04-11 11:30:00,
2013-04-11 04:40:00,48.8,46.6,30.02,ESE,112,2.0,10.0,92,0.00,,,0.00,LWC V2.00 B2112,2013-04-11 11:40:00,
2013-04-11 04:50:00,48.8,46.6,30.02,ESE,112,2.0,10.0,92,0.00,,,0.00,LWC V2.00 B2112,2013-04-11 11:50:00,
2013-04-11 05:00:00,48.8,46.6,30.02,ESE,112,2.0,10.0,92,0.00,,,0.00,LWC V2.00 B2112,2013-04-11 12:00:00,
2013-04-11 05:10:00,48.5,46.3,30.02,ESE,112,1.0,6.0,92,0.00,,,0.00,LWC V2.00 B2112,2013-04-11 12:10:00,
2013-04-11 05:20:00,48.5,46.3,30.02,ESE,112,1.0,6.0,92,0.00,,,0.00,LWC V2.00 B2112,2013-04-11 12:20:00,
2013-04-11 05:30:00,48.5,46.3,30.02,ESE,112,1.0,6.0,92,0.00,,,0.00,LWC V2.00 B2112,2013-04-11 12:30:00,
2013-04-11 05:40:00,48.1,45.9,30.01,ESE,112,1.0,6.0,92,0.00,,,0.00,LWC V2.00 B2112,2013-04-11 12:40:00,
2013-04-11 05:50:00,48.1,45.9,30.01,ESE,112,1.0,6.0,92,0.00,,,0.00,LWC V2.00 B2112,2013-04-11 12:50:00,
2013-04-11 06:00:00,48.1,45.9,30.01,ESE,112,1.0,6.0,92,0.00,,,0.00,LWC V2.00 B2112,2013-04-11 13:00:00,
2013-04-11 06:10:00,47.9,45.7,30.00,East,90,1.0,7.0,92,0.00,,,0.00,LWC V2.00 B2112,2013-04-11 13:10:00,
2013-04-11 06:20:00,47.9,45.7,30.00,East,90,1.0,7.0,92,0.00,,,0.00,LWC V2.00 B2112,2013-04-11 13:20:00,
2013-04-11 06:30:00,47.9,45.7,30.00,East,90,1.0,7.0,92,0.00,,,0.00,LWC V2.00 B2112,2013-04-11 13:30:00,
2013-04-11 06:46:00,47.7,45.8,30.01,East,101,1.0,2.0,93,0.00,,,0.00,LWC V2.00 B2112,2013-04-11 13:46:00,
2013-04-11 06:51:00,47.7,45.8,30.01,East,100,0.0,0.0,93,0.00,,,0.00,LWC V2.00 B2112,2013-04-11 13:51:00,
2013-04-11 06:56:00,47.5,45.3,30.01,East,97,0.0,0.0,92,0.00,,,0.00,LWC V2.00 B2112,2013-04-11 13:56:00,
2013-04-11 07:01:00,47.3,45.1,30.01,SSE,160,0.0,0.0,92,0.00,,,0.00,LWC V2.00 B2112,2013-04-11 14:01:00,
2013-04-11 07:06:00,47.3,45.4,30.01,East,93,0.0,0.0,93,0.00,,,0.00,LWC V2.00 B2112,2013-04-11 14:06:00,
2013-04-11 07:11:00,47.3,45.4,30.01,East,88,0.0,0.0,93,0.00,,,0.00,LWC V2.00 B2112,2013-04-11 14:11:00,
2013-04-11 07:16:00,47.4,45.5,30.01,East,95,0.0,0.0,93,0.00,,,0.00,LWC V2.00 B2112,2013-04-11 14:16:00,
2013-04-11 07:21:00,47.5,45.6,30.01,SSE,166,0.0,1.0,93,0.00,,,0.00,LWC V2.00 B2112,2013-04-11 14:21:00,
2013-04-11 07:26:00,47.5,45.6,30.01,East,97,1.0,2.0,93,0.00,,,0.00,LWC V2.00 B2112,2013-04-11 14:26:00,
2013-04-11 07:31:00,47.7,45.8,30.02,WNW,302,1.0,1.0,93,0.00,,,0.00,LWC V2.00 B2112,2013-04-11 14:31:00,
2013-04-11 07:36:00,47.9,46.0,30.02,SSE,148,0.0,0.0,93,0.00,,,0.00,LWC V2.00 B2112,2013-04-11 14:36:00,
2013-04-11 07:41:00,48.1,46.2,30.02,ESE,118,1.0,2.0,93,0.00,,,0.00,LWC V2.00 B2112,2013-04-11 14:41:00,
2013-04-11 07:46:00,48.4,46.5,30.02,ESE,105,1.0,1.0,93,0.00,,,0.00,LWC V2.00 B2112,2013-04-11 14:46:00,
2013-04-11 07:51:00,48.7,46.8,30.02,SW,217,0.0,1.0,93,0.00,,,0.00,LWC V2.00 B2112,2013-04-11 14:51:00,
2013-04-11 07:56:00,49.0,47.1,30.02,West,262,0.0,0.0,93,0.00,,,0.00,LWC V2.00 B2112,2013-04-11 14:56:00,
2013-04-11 08:01:00,49.3,47.1,30.02,NW,311,1.0,4.0,92,0.00,,,0.00,LWC V2.00 B2112,2013-04-11 15:01:00,
2013-04-11 08:06:00,50.0,47.8,30.02,South,174,0.0,3.0,92,0.00,,,0.00,LWC V2.00 B2112,2013-04-11 15:06:00,
2013-04-11 08:11:00,50.8,48.3,30.02,East,90,2.0,2.0,91,0.00,,,0.00,LWC V2.00 B2112,2013-04-11 15:11:00,
2013-04-11 08:16:00,51.6,48.8,30.02,ESE,107,1.0,1.0,90,0.00,,,0.00,LWC V2.00 B2112,2013-04-11 15:16:00,
2013-04-11 08:21:00,52.3,49.2,30.02,SSE,149,0.0,0.0,89,0.00,,,0.00,LWC V2.00 B2112,2013-04-11 15:21:00,
2013-04-11 08:26:00,53.2,49.7,30.03,ESE,106,0.0,0.0,88,0.00,,,0.00,LWC V2.00 B2112,2013-04-11 15:26:00,
2013-04-11 08:31:00,53.9,49.8,30.02,ESE,106,1.0,2.0,86,0.00,,,0.00,LWC V2.00 B2112,2013-04-11 15:31:00,
2013-04-11 08:36:00,53.9,49.2,30.02,ENE,76,1.0,2.0,84,0.00,,,0.00,LWC V2.00 B2112,2013-04-11 15:36:00,
2013-04-11 08:41:00,54.5,49.8,30.02,ENE,64,0.0,1.0,84,0.00,,,0.00,LWC V2.00 B2112,2013-04-11 15:41:00,
2013-04-11 08:46:00,55.4,50.3,30.02,SW,231,0.0,1.0,83,0.00,,,0.00,LWC V2.00 B2112,2013-04-11 15:46:00,
2013-04-11 08:51:00,56.1,50.3,30.02,NE,47,1.0,1.0,81,0.00,,,0.00,LWC V2.00 B2112,2013-04-11 15:51:00,
2013-04-11 08:56:00,56.6,50.5,30.01,ENE,73,0.0,0.0,80,0.00,,,0.00,LWC V2.00 B2112,2013-04-11 15:56:00,
2013-04-11 09:01:00,56.8,50.0,30.01,East,93,0.0,1.0,78,0.00,,,0.00,LWC V2.00 B2112,2013-04-11 16:01:00,
2013-04-11 09:06:00,57.0,50.5,30.01,WSW,255,1.0,1.0,79,0.00,,,0.00,LWC V2.00 B2112,2013-04-11 16:06:00,
2013-04-11 09:11:00,57.1,50.6,30.01,ESE,106,2.0,5.0,79,0.00,,,0.00,LWC V2.00 B2112,2013-04-11 16:11:00,
2013-04-11 09:16:00,57.1,51.0,30.01,SSE,165,0.0,2.0,80,0.00,,,0.00,LWC V2.00 B2112,2013-04-11 16:16:00,
2013-04-11 09:21:00,57.4,50.9,30.01,NNE,32,1.0,1.0,79,0.00,,,0.00,LWC V2.00 B2112,2013-04-11 16:21:00,
2013-04-11 09:26:00,57.7,50.5,30.01,ESE,104,0.0,2.0,77,0.00,,,0.00,LWC V2.00 B2112,2013-04-11 16:26:00,
2013-04-11 09:31:00,57.7,50.5,30.00,WSW,239,1.0,5.0,77,0.00,,,0.00,LWC V2.00 B2112,2013-04-11 16:31:00,
2013-04-11 09:36:00,57.8,50.6,30.00,ESE,115,0.0,3.0,77,0.00,,,0.00,LWC V2.00 B2112,2013-04-11 16:36:00,
2013-04-11 09:41:00,57.9,50.7,30.00,SW,229,2.0,2.0,77,0.00,,,0.00,LWC V2.00 B2112,2013-04-11 16:41:00,
2013-04-11 09:46:00,58.4,51.2,30.00,West,274,2.0,3.0,77,0.00,,,0.00,LWC V2.00 B2112,2013-04-11 16:46:00,
2013-04-11 09:51:00,59.0,51.4,30.00,South,170,0.0,3.0,76,0.00,,,0.00,LWC V2.00 B2112,2013-04-11 16:51:00,
2013-04-11 09:56:00,59.8,51.1,30.01,North,350,3.0,5.0,73,0.00,,,0.00,LWC V2.00 B2112,2013-04-11 16:56:00,
2013-04-11 10:01:00,59.5,50.5,30.00,NNE,23,0.0,1.0,72,0.00,,,0.00,LWC V2.00 B2112,2013-04-11 17:01:00,
2013-04-11 10:06:00,59.5,50.1,30.01,NW,318,2.0,4.0,71,0.00,,,0.00,LWC V2.00 B2112,2013-04-11 17:06:00,
2013-04-11 10:11:00,59.0,50.0,30.01,NNE,19,1.0,4.0,72,0.00,,,0.00,LWC V2.00 B2112,2013-04-11 17:11:00,
2013-04-11 10:16:00,58.3,49.3,30.01,North,1,5.0,7.0,72,0.00,,,0.00,LWC V2.00 B2112,2013-04-11 17:16:00,
2013-04-11 10:21:00,58.2,50.0,30.01,NE,50,3.0,4.0,74,0.00,,,0.00,LWC V2.00 B2112,2013-04-11 17:21:00,
2013-04-11 10:26:00,57.9,49.7,30.01,ESE,106,5.0,6.0,74,0.00,,,0.00,LWC V2.00 B2112,2013-04-11 17:26:00,
2013-04-11 10:31:00,57.2,49.7,30.01,WNW,301,3.0,5.0,76,0.00,,,0.00,LWC V2.00 B2112,2013-04-11 17:31:00,
2013-04-11 10:36:00,57.1,49.2,30.01,ESE,117,3.0,8.0,75,0.00,,,0.00,LWC V2.00 B2112,2013-04-11 17:36:00,
2013-04-11 10:41:00,57.0,49.9,30.01,South,174,0.0,2.0,77,0.00,,,0.00,LWC V2.00 B2112,2013-04-11 17:41:00,
2013-04-11 10:46:00,57.2,49.3,30.01,NNW,347,1.0,3.0,75,0.00,,,0.00,LWC V2.00 B2112,2013-04-11 17:46:00,
2013-04-11 10:51:00,57.2,49.7,30.02,ESE,122,1.0,6.0,76,0.00,,,0.00,LWC V2.00 B2112,2013-04-11 17:51:00,
2013-04-11 10:56:00,57.2,50.1,30.02,SW,218,0.0,5.0,77,0.00,,,0.00,LWC V2.00 B2112,2013-04-11 17:56:00,
2013-04-11 11:01:00,56.8,49.3,30.02,ESE,117,2.0,4.0,76,0.00,,,0.00,LWC V2.00 B2112,2013-04-11 18:01:00,
2013-04-11 11:06:00,56.8,49.7,30.02,ESE,123,3.0,5.0,77,0.00,,,0.00,LWC V2.00 B2112,2013-04-11 18:06:00,
2013-04-11 11:11:00,57.2,50.1,30.02,SE,124,2.0,7.0,77,0.00,,,0.00,LWC V2.00 B2112,2013-04-11 18:11:00,
2013-04-11 11:16:00,57.4,49.9,30.01,NW,310,2.0,6.0,76,0.00,,,0.00,LWC V2.00 B2112,2013-04-11 18:16:00,
2013-04-11 11:21:00,57.5,50.0,30.01,ESE,123,3.0,7.0,76,0.00,,,0.00,LWC V2.00 B2112,2013-04-11 18:21:00,
2013-04-11 11:26:00,57.2,50.1,30.01,ESE,107,1.0,3.0,77,0.00,,,0.00,LWC V2.00 B2112,2013-04-11 18:26:00,
2013-04-11 11:31:00,57.5,50.0,30.01,ESE,102,2.0,5.0,76,0.00,,,0.00,LWC V2.00 B2112,2013-04-11 18:31:00,
2013-04-11 11:36:00,57.5,49.6,30.01,WSW,257,1.0,7.0,75,0.00,,,0.00,LWC V2.00 B2112,2013-04-11 18:36:00,
2013-04-11 11:41:00,57.9,50.4,30.01,SE,146,3.0,5.0,76,0.00,,,0.00,LWC V2.00 B2112,2013-04-11 18:41:00,
2013-04-11 11:46:00,57.8,49.9,30.00,South,188,1.0,5.0,75,0.00,,,0.00,LWC V2.00 B2112,2013-04-11 18:46:00,
2013-04-11 11:51:00,57.9,50.4,30.00,SE,127,3.0,4.0,76,0.00,,,0.00,LWC V2.00 B2112,2013-04-11 18:51:00,
2013-04-11 11:56:00,58.2,50.3,30.00,WSW,239,2.0,6.0,75,0.00,,,0.00,LWC V2.00 B2112,2013-04-11 18:56:00,
2013-04-11 12:01:00,58.2,50.0,30.00,ENE,58,1.0,5.0,74,0.00,,,0.00,LWC V2.00 B2112,2013-04-11 19:01:00,
2013-04-11 12:06:00,58.3,50.4,29.99,SSE,149,1.0,6.0,75,0.00,,,0.00,LWC V2.00 B2112,2013-04-11 19:06:00,
2013-04-11 12:11:00,58.1,49.9,29.99,East,101,3.0,5.0,74,0.00,,,0.00,LWC V2.00 B2112,2013-04-11 19:11:00,
2013-04-11 12:16:00,58.2,50.3,29.99,WSW,256,1.0,3.0,75,0.00,,,0.00,LWC V2.00 B2112,2013-04-11 19:16:00,
2013-04-11 12:21:00,58.4,49.8,29.98,ESE,108,3.0,4.0,73,0.00,,,0.00,LWC V2.00 B2112,2013-04-11 19:21:00,
2013-04-11 12:26:00,58.2,50.0,29.98,North,357,1.0,5.0,74,0.00,,,0.00,LWC V2.00 B2112,2013-04-11 19:26:00,
2013-04-11 12:31:00,58.2,49.6,29.98,SE,136,0.0,6.0,73,0.00,,,0.00,LWC V2.00 B2112,2013-04-11 19:31:00,
2013-04-11 12:36:00,58.3,49.7,29.98,SW,231,3.0,8.0,73,0.00,,,0.00,LWC V2.00 B2112,2013-04-11 19:36:00,
2013-04-11 12:42:00,58.5,49.9,29.97,SE,124,3.0,6.0,73,0.00,,,0.00,LWC V2.00 B2112,2013-04-11 19:42:00,
2013-04-11 12:47:00,58.4,49.4,29.97,North,8,3.0,6.0,72,0.00,,,0.00,LWC V2.00 B2112,2013-04-11 19:47:00,
2013-04-11 12:52:00,58.3,48.6,29.97,NE,43,1.0,5.0,70,0.00,,,0.00,LWC V2.00 B2112,2013-04-11 19:52:00,
2013-04-11 12:57:00,58.7,49.3,29.97,NE,44,4.0,6.0,71,0.00,,,0.00,LWC V2.00 B2112,2013-04-11 19:57:00,
2013-04-11 13:02:00,58.6,49.2,29.96,East,91,1.0,6.0,71,0.00,,,0.00,LWC V2.00 B2112,2013-04-11 20:02:00,
2013-04-11 13:07:00,58.6,49.6,29.96,NNW,331,0.0,3.0,72,0.00,,,0.00,LWC V2.00 B2112,2013-04-11 20:07:00,
2013-04-11 13:12:00,58.9,49.1,29.96,ESE,108,6.0,14.0,70,0.00,,,0.00,LWC V2.00 B2112,2013-04-11 20:12:00,
2013-04-11 13:17:00,59.1,49.7,29.96,NW,319,2.0,5.0,71,0.00,,,0.00,LWC V2.00 B2112,2013-04-11 20:17:00,
2013-04-11 13:22:00,60.0,50.2,29.95,East,94,1.0,5.0,70,0.00,,,0.00,LWC V2.00 B2112,2013-04-11 20:22:00,
2013-04-11 13:27:00,60.9,50.7,29.95,East,89,1.0,3.0,69,0.00,,,0.00,LWC V2.00 B2112,2013-04-11 20:27:00,
2013-04-11 13:32:00,61.5,50.0,29.95,South,191,1.0,5.0,66,0.00,,,0.00,LWC V2.00 B2112,2013-04-11 20:32:00,
2013-04-11 13:37:00,61.9,50.8,29.95,East,101,4.0,4.0,67,0.00,,,0.00,LWC V2.00 B2112,2013-04-11 20:37:00,
2013-04-11 13:42:00,61.7,50.2,29.95,SE,127,0.0,3.0,66,0.00,,,0.00,LWC V2.00 B2112,2013-04-11 20:42:00,
2013-04-11 13:47:00,61.1,49.7,29.94,North,359,2.0,4.0,66,0.00,,,0.00,LWC V2.00 B2112,2013-04-11 20:47:00,
2013-04-11 13:52:00,60.8,49.8,29.94,NE,51,1.0,2.0,67,0.00,,,0.00,LWC V2.00 B2112,2013-04-11 20:52:00,
2013-04-11 13:57:00,61.4,49.9,29.94,NNW,343,2.0,4.0,66,0.00,,,0.00,LWC V2.00 B2112,2013-04-11 20:57:00,
2013-04-11 14:02:00,62.4,52.1,29.94,South,169,1.0,3.0,69,0.00,,,0.00,LWC V2.00 B2112,2013-04-11 21:02:00,
2013-04-11 14:07:00,62.2,50.7,29.93,SSW,195,1.0,9.0,66,0.00,,,0.00,LWC V2.00 B2112,2013-04-11 21:07:00,
2013-04-11 14:12:00,61.3,51.0,29.92,SE,127,1.0,2.0,69,0.00,,,0.00,LWC V2.00 B2112,2013-04-11 21:12:00,
2013-04-11 14:17:00,61.5,50.8,29.92,NW,313,0.0,4.0,68,0.00,,,0.00,LWC V2.00 B2112,2013-04-11 21:17:00,
2013-04-11 14:22:00,62.4,51.3,29.92,SW,214,1.0,2.0,67,0.00,,,0.00,LWC V2.00 B2112,2013-04-11 21:22:00,
2013-04-11 14:27:00,63.4,51.8,29.91,WNW,300,3.0,3.0,66,0.00,,,0.00,LWC V2.00 B2112,2013-04-11 21:27:00,
2013-04-11 14:32:00,64.4,52.4,29.91,ESE,122,0.0,2.0,65,0.00,,,0.00,LWC V2.00 B2112,2013-04-11 21:32:00,
2013-04-11 14:37:00,65.0,50.8,29.91,SSE,159,2.0,6.0,60,0.00,,,0.00,LWC V2.00 B2112,2013-04-11 21:37:00,
2013-04-11 14:42:00,64.3,50.6,29.91,NNW,338,4.0,4.0,61,0.00,,,0.00,LWC V2.00 B2112,2013-04-11 21:42:00,
2013-04-11 14:47:00,64.4,51.1,29.91,ESE,120,1.0,3.0,62,0.00,,,0.00,LWC V2.00 B2112,2013-04-11 21:47:00,
2013-04-11 14:52:00,64.6,50.8,29.91,ESE,120,5.0,6.0,61,0.00,,,0.00,LWC V2.00 B2112,2013-04-11 21:52:00,
2013-04-11 14:57:00,63.5,49.8,29.91,ENE,58,0.0,6.0,61,0.00,,,0.00,LWC V2.00 B2112,2013-04-11 21:57:00,
2013-04-11 15:02:00,62.7,49.5,29.91,NW,309,2.0,4.0,62,0.00,,,0.00,LWC V2.00 B2112,2013-04-11 22:02:00,
2013-04-11 15:07:00,63.0,49.8,29.91,East,92,1.0,4.0,62,0.00,,,0.00,LWC V2.00 B2112,2013-04-11 22:07:00,
2013-04-11 15:12:00,63.0,48.9,29.90,North,11,4.0,6.0,60,0.00,,,0.00,LWC V2.00 B2112,2013-04-11 22:12:00,
2013-04-11 15:17:00,62.1,48.5,29.91,NW,312,1.0,5.0,61,0.00,,,0.00,LWC V2.00 B2112,2013-04-11 22:17:00,
2013-04-11 15:22:00,60.7,48.4,29.91,WNW,300,3.0,6.0,64,0.00,,,0.00,LWC V2.00 B2112,2013-04-11 22:22:00,
2013-04-11 15:27:00,59.9,48.5,29.91,NW,304,3.0,7.0,66,0.00,,,0.00,LWC V2.00 B2112,2013-04-11 22:27:00,
2013-04-11 15:32:00,59.9,48.9,29.91,East,96,3.0,5.0,67,0.00,,,0.00,LWC V2.00 B2112,2013-04-11 22:32:00,
2013-04-11 15:37:00,59.6,48.6,29.90,NE,40,1.0,6.0,67,0.00,,,0.00,LWC V2.00 B2112,2013-04-11 22:37:00,
2013-04-11 15:42:00,59.6,49.0,29.90,SSE,155,1.0,3.0,68,0.00,,,0.00,LWC V2.00 B2112,2013-04-11 22:42:00,
2013-04-11 15:47:00,59.4,48.8,29.90,East,91,4.0,9.0,68,0.00,,,0.00,LWC V2.00 B2112,2013-04-11 22:47:00,
2013-04-11 15:52:00,58.7,48.6,29.91,East,91,2.0,6.0,69,0.00,,,0.00,LWC V2.00 B2112,2013-04-11 22:52:00,
2013-04-11 15:57:00,58.3,48.9,29.90,SSE,158,1.0,4.0,71,0.00,,,0.00,LWC V2.00 B2112,2013-04-11 22:57:00,
2013-04-11 16:02:00,57.8,48.1,29.90,NNW,330,3.0,6.0,70,0.00,,,0.00,LWC V2.00 B2112,2013-04-11 23:02:00,
2013-04-11 16:07:00,57.5,48.2,29.90,West,273,1.0,4.0,71,0.00,,,0.00,LWC V2.00 B2112,2013-04-11 23:07:00,
2013-04-11 16:12:00,57.0,47.7,29.90,North,5,4.0,7.0,71,0.00,,,0.00,LWC V2.00 B2112,2013-04-11 23:12:00,
2013-04-11 16:17:00,56.3,47.8,29.90,SE,143,3.0,5.0,73,0.00,,,0.00,LWC V2.00 B2112,2013-04-11 23:17:00,
2013-04-11 16:22:00,55.8,47.6,29.89,NE,46,2.0,7.0,74,0.00,,,0.00,LWC V2.00 B2112,2013-04-11 23:22:00,
2013-04-11 16:27:00,55.5,47.7,29.89,ENE,60,7.0,7.0,75,0.00,,,0.00,LWC V2.00 B2112,2013-04-11 23:27:00,
2013-04-11 16:32:00,54.9,47.1,29.89,WNW,288,3.0,3.0,75,0.00,,,0.00,LWC V2.00 B2112,2013-04-11 23:32:00,
2013-04-11 16:37:00,54.7,47.6,29.89,ESE,111,3.0,6.0,77,0.00,,,0.00,LWC V2.00 B2112,2013-04-11 23:37:00,
2013-04-11 16:42:00,54.5,47.4,29.89,ESE,109,5.0,5.0,77,0.00,,,0.00,LWC V2.00 B2112,2013-04-11 23:42:00,
2013-04-11 16:47:00,54.3,47.6,29.88,ESE,107,3.0,5.0,78,0.00,,,0.00,LWC V2.00 B2112,2013-04-11 23:47:00,
2013-04-11 16:52:00,54.3,47.2,29.88,East,85,2.0,7.0,77,0.00,,,0.00,LWC V2.00 B2112,2013-04-11 23:52:00,
2013-04-11 16:57:00,54.2,47.1,29.88,NNE,26,2.0,5.0,77,0.00,,,0.00,LWC V2.00 B2112,2013-04-11 23:57:00,
2013-04-11 17:02:00,54.0,47.0,29.88,East,95,3.0,5.0,77,0.00,,,0.00,LWC V2.00 B2112,2013-04-12 00:02:00,
2013-04-11 17:07:00,53.8,46.8,29.88,North,354,2.0,8.0,77,0.00,,,0.00,LWC V2.00 B2112,2013-04-12 00:07:00,
2013-04-11 17:12:00,53.7,46.7,29.88,NNW,336,3.0,4.0,77,0.00,,,0.00,LWC V2.00 B2112,2013-04-12 00:12:00,
2013-04-11 17:17:00,53.4,46.4,29.88,ESE,102,5.0,9.0,77,0.00,,,0.00,LWC V2.00 B2112,2013-04-12 00:17:00,
2013-04-11 17:22:00,53.2,46.5,29.87,ESE,113,2.0,7.0,78,0.00,,,0.00,LWC V2.00 B2112,2013-04-12 00:22:00,
2013-04-11 17:27:00,53.0,46.3,29.87,West,281,0.0,4.0,78,0.00,,,0.00,LWC V2.00 B2112,2013-04-12 00:27:00,
2013-04-11 17:32:00,53.1,46.4,29.87,SW,217,2.0,3.0,78,0.00,,,0.00,LWC V2.00 B2112,2013-04-12 00:32:00,
2013-04-11 17:37:00,52.9,46.2,29.87,East,99,1.0,10.0,78,0.00,,,0.00,LWC V2.00 B2112,2013-04-12 00:37:00,
2013-04-11 17:42:00,52.7,46.0,29.87,WNW,297,1.0,7.0,78,0.00,,,0.00,LWC V2.00 B2112,2013-04-12 00:42:00,
2013-04-11 17:47:00,52.6,45.9,29.86,NW,309,2.0,5.0,78,0.00,,,0.00,LWC V2.00 B2112,2013-04-12 00:47:00,
2013-04-11 17:52:00,52.6,45.9,29.86,West,264,1.0,12.0,78,0.00,,,0.00,LWC V2.00 B2112,2013-04-12 00:52:00,
2013-04-11 17:57:00,52.4,46.1,29.86,SE,139,0.0,4.0,79,0.00,,,0.00,LWC V2.00 B2112,2013-04-12 00:57:00,
2013-04-11 18:02:00,52.4,46.1,29.86,SSE,150,2.0,4.0,79,0.00,,,0.00,LWC V2.00 B2112,2013-04-12 01:02:00,
2013-04-11 18:07:00,52.3,46.0,29.86,SE,139,0.0,4.0,79,0.00,,,0.00,LWC V2.00 B2112,2013-04-12 01:07:00,
2013-04-11 18:12:00,52.3,46.0,29.85,SW,214,1.0,1.0,79,0.00,,,0.00,LWC V2.00 B2112,2013-04-12 01:12:00,
2013-04-11 18:16:00,52.2,46.2,29.85,ENE,74,0.0,0.0,80,0.00,,,0.00,LWC V2.00 B2112,2013-04-12 01:16:00,
2013-04-11 18:21:00,52.2,46.2,29.84,East,97,2.0,3.0,80,0.00,,,0.00,LWC V2.00 B2112,2013-04-12 01:21:00,
2013-04-11 18:27:00,52.3,46.3,29.85,ESE,106,1.0,4.0,80,0.00,,,0.00,LWC V2.00 B2112,2013-04-12 01:27:00,
2013-04-11 18:32:00,52.3,46.0,29.85,SSE,165,1.0,4.0,79,0.00,,,0.00,LWC V2.00 B2112,2013-04-12 01:32:00,
2013-04-11 18:36:00,52.1,46.1,29.85,WNW,302,1.0,7.0,80,0.00,,,0.00,LWC V2.00 B2112,2013-04-12 01:36:00,
2013-04-11 18:41:00,52.0,46.0,29.86,East,97,1.0,4.0,80,0.00,,,0.00,LWC V2.00 B2112,2013-04-12 01:41:00,
2013-04-11 18:46:00,51.9,45.9,29.85,WNW,291,2.0,5.0,80,0.00,,,0.00,LWC V2.00 B2112,2013-04-12 01:46:00,
2013-04-11 18:52:00,51.8,46.2,29.85,WNW,288,1.0,4.0,81,0.00,,,0.00,LWC V2.00 B2112,2013-04-12 01:52:00,
2013-04-11 18:57:00,51.7,46.1,29.85,ESE,114,3.0,3.0,81,0.00,,,0.00,LWC V2.00 B2112,2013-04-12 01:57:00,
2013-04-11 19:02:00,51.7,46.1,29.85,East,94,0.0,2.0,81,0.00,,,0.00,LWC V2.00 B2112,2013-04-12 02:02:00,
2013-04-11 19:07:00,51.6,46.0,29.84,SE,124,0.0,2.0,81,0.00,,,0.00,LWC V2.00 B2112,2013-04-12 02:07:00,
2013-04-11 19:12:00,51.5,45.9,29.85,South,186,0.0,3.0,81,0.00,,,0.00,LWC V2.00 B2112,2013-04-12 02:12:00,
2013-04-11 19:17:00,51.3,46.0,29.85,SE,146,0.0,1.0,82,0.00,,,0.00,LWC V2.00 B2112,2013-04-12 02:17:00,
2013-04-11 19:22:00,51.1,45.8,29.84,NW,318,0.0,1.0,82,0.00,,,0.00,LWC V2.00 B2112,2013-04-12 02:22:00,
2013-04-11 19:27:00,50.9,45.6,29.84,East,97,1.0,1.0,82,0.00,,,0.00,LWC V2.00 B2112,2013-04-12 02:27:00,
2013-04-11 19:32:00,50.7,45.7,29.83,SE,127,0.0,0.0,83,0.00,,,0.00,LWC V2.00 B2112,2013-04-12 02:32:00,
2013-04-11 19:37:00,50.4,45.4,29.84,SE,127,0.0,0.0,83,0.00,,,0.00,LWC V2.00 B2112,2013-04-12 02:37:00,
2013-04-11 19:41:00,50.0,45.4,29.84,SE,127,0.0,0.0,84,0.00,,,0.00,LWC V2.00 B2112,2013-04-12 02:41:00,
2013-04-11 19:46:00,49.7,45.4,29.85,East,82,2.0,2.0,85,0.00,,,0.00,LWC V2.00 B2112,2013-04-12 02:46:00,
2013-04-11 19:52:00,49.6,45.6,29.85,NNE,27,2.0,7.0,86,0.00,,,0.00,LWC V2.00 B2112,2013-04-12 02:52:00,
2013-04-11 19:57:00,49.7,45.4,29.84,NW,311,0.0,2.0,85,0.00,,,0.00,LWC V2.00 B2112,2013-04-12 02:57:00,
2013-04-11 20:02:00,49.7,45.4,29.84,WSW,243,0.0,3.0,85,0.00,,,0.00,LWC V2.00 B2112,2013-04-12 03:02:00,
2013-04-11 20:07:00,49.7,45.4,29.85,NW,306,2.0,3.0,85,0.00,,,0.00,LWC V2.00 B2112,2013-04-12 03:07:00,
2013-04-11 20:12:00,49.7,45.7,29.84,ESE,105,0.0,2.0,86,0.00,,,0.00,LWC V2.00 B2112,2013-04-12 03:12:00,
2013-04-11 20:17:00,49.6,45.6,29.85,SE,128,0.0,1.0,86,0.00,,,0.00,LWC V2.00 B2112,2013-04-12 03:17:00,
2013-04-11 20:22:00,49.5,45.5,29.85,SE,141,1.0,2.0,86,0.00,,,0.00,LWC V2.00 B2112,2013-04-12 03:22:00,
2013-04-11 20:27:00,49.3,45.3,29.85,SSE,149,2.0,4.0,86,0.00,,,0.00,LWC V2.00 B2112,2013-04-12 03:27:00,
2013-04-11 20:32:00,49.2,45.2,29.85,NW,324,1.0,2.0,86,0.00,,,0.00,LWC V2.00 B2112,2013-04-12 03:32:00,
2013-04-11 20:37:00,49.0,45.3,29.85,NNW,332,1.0,4.0,87,0.00,,,0.00,LWC V2.00 B2112,2013-04-12 03:37:00,
2013-04-11 20:42:00,48.9,45.2,29.85,East,94,2.0,6.0,87,0.00,,,0.00,LWC V2.00 B2112,2013-04-12 03:42:00,
2013-04-11 20:47:00,48.8,45.1,29.85,SW,221,2.0,5.0,87,0.00,,,0.00,LWC V2.00 B2112,2013-04-12 03:47:00,
2013-04-11 20:52:00,48.8,45.1,29.85,ESE,103,0.0,2.0,87,0.00,,,0.00,LWC V2.00 B2112,2013-04-12 03:52:00,
2013-04-11 20:57:00,48.7,45.3,29.85,ESE,120,2.0,3.0,88,0.00,,,0.00,LWC V2.00 B2112,2013-04-12 03:57:00,
2013-04-11 21:00:00,48.6,45.2,29.86,NNW,329,1.0,2.0,88,0.00,,,0.00,LWC V2.00 B2112,2013-04-12 04:00:00,
2013-04-11 21:01:00,48.6,45.2,29.86,ESE,117,1.0,2.0,88,0.00,,,0.00,LWC V2.00 B2112,2013-04-12 04:01:00,
2013-04-11 21:06:00,48.5,45.1,29.86,ESE,104,1.0,1.0,88,0.00,,,0.00,LWC V2.00 B2112,2013-04-12 04:06:00,
2013-04-11 21:11:00,48.4,45.0,29.86,NW,311,2.0,2.0,88,0.00,,,0.00,LWC V2.00 B2112,2013-04-12 04:11:00,
2013-04-11 21:16:00,48.3,44.9,29.86,East,90,0.0,2.0,88,0.00,,,0.00,LWC V2.00 B2112,2013-04-12 04:16:00,
2013-04-11 21:21:00,48.3,44.9,29.86,SE,131,0.0,0.0,88,0.00,,,0.00,LWC V2.00 B2112,2013-04-12 04:21:00,
2013-04-11 21:26:00,48.2,44.8,29.86,SW,234,1.0,1.0,88,0.00,,,0.00,LWC V2.00 B2112,2013-04-12 04:26:00,
2013-04-11 21:31:00,48.1,45.0,29.86,NNW,329,0.0,2.0,89,0.00,,,0.00,LWC V2.00 B2112,2013-04-12 04:31:00,
2013-04-11 21:36:00,48.1,45.0,29.87,SW,217,2.0,2.0,89,0.00,,,0.00,LWC V2.00 B2112,2013-04-12 04:36:00,
2013-04-11 21:41:00,48.3,45.2,29.87,SE,139,2.0,5.0,89,0.00,,,0.00,LWC V2.00 B2112,2013-04-12 04:41:00,
2013-04-11 21:46:00,48.3,45.2,29.87,West,273,1.0,1.0,89,0.00,,,0.00,LWC V2.00 B2112,2013-04-12 04:46:00,
2013-04-11 21:51:00,48.2,45.1,29.87,SSE,154,2.0,2.0,89,0.00,,,0.00,LWC V2.00 B2112,2013-04-12 04:51:00,
2013-04-11 21:56:00,48.2,45.1,29.87,East,85,0.0,2.0,89,0.00,,,0.00,LWC V2.00 B2112,2013-04-12 04:56:00,
2013-04-11 22:01:00,48.1,45.0,29.87,NNW,330,0.0,2.0,89,0.00,,,0.00,LWC V2.00 B2112,2013-04-12 05:01:00,
2013-04-11 22:06:00,48.1,45.0,29.87,West,281,1.0,5.0,89,0.00,,,0.00,LWC V2.00 B2112,2013-04-12 05:06:00,
2013-04-11 22:11:00,48.1,45.3,29.87,ENE,78,0.0,2.0,90,0.00,,,0.00,LWC V2.00 B2112,2013-04-12 05:11:00,
2013-04-11 22:16:00,48.2,45.4,29.87,ESE,112,0.0,1.0,90,0.00,,,0.00,LWC V2.00 B2112,2013-04-12 05:16:00,
2013-04-11 22:21:00,48.2,45.4,29.86,NNW,338,0.0,3.0,90,0.00,,,0.00,LWC V2.00 B2112,2013-04-12 05:21:00,
2013-04-11 22:26:00,48.2,45.4,29.86,ESE,115,2.0,5.0,90,0.00,,,0.00,LWC V2.00 B2112,2013-04-12 05:26:00,
2013-04-11 22:31:00,48.2,45.4,29.87,NE,50,2.0,3.0,90,0.00,,,0.00,LWC V2.00 B2112,2013-04-12 05:31:00,
2013-04-11 22:36:00,48.2,45.4,29.87,SSE,167,1.0,4.0,90,0.00,,,0.00,LWC V2.00 B2112,2013-04-12 05:36:00,
2013-04-11 22:41:00,48.1,45.3,29.87,ESE,105,1.0,4.0,90,0.00,,,0.00,LWC V2.00 B2112,2013-04-12 05:41:00,
2013-04-11 22:46:00,48.2,45.4,29.86,SE,129,0.0,3.0,90,0.00,,,0.00,LWC V2.00 B2112,2013-04-12 05:46:00,
2013-04-11 22:51:00,48.1,45.3,29.86,WSW,255,0.0,3.0,90,0.00,,,0.00,LWC V2.00 B2112,2013-04-12 05:51:00,
2013-04-11 22:56:00,48.0,45.2,29.86,NNW,346,0.0,1.0,90,0.00,,,0.00,LWC V2.00 B2112,2013-04-12 05:56:00,
2013-04-11 23:01:00,47.9,45.1,29.86,North,356,0.0,0.0,90,0.00,,,0.00,LWC V2.00 B2112,2013-04-12 06:01:00,
2013-04-11 23:06:00,47.8,45.0,29.86,ESE,104,0.0,3.0,90,0.00,,,0.00,LWC V2.00 B2112,2013-04-12 06:06:00,
2013-04-11 23:11:00,47.7,44.9,29.86,NW,314,2.0,3.0,90,0.00,,,0.00,LWC V2.00 B2112,2013-04-12 06:11:00,
2013-04-11 23:16:00,47.7,44.9,29.86,ESE,122,1.0,2.0,90,0.00,,,0.00,LWC V2.00 B2112,2013-04-12 06:16:00,
2013-04-11 23:21:00,47.7,44.9,29.86,WNW,287,1.0,4.0,90,0.00,,,0.00,LWC V2.00 B2112,2013-04-12 06:21:00,
2013-04-11 23:26:00,47.8,45.0,29.86,NW,311,2.0,4.0,90,0.00,,,0.00,LWC V2.00 B2112,2013-04-12 06:26:00,
2013-04-11 23:31:00,47.8,45.3,29.86,ESE,120,0.0,1.0,91,0.00,,,0.00,LWC V2.00 B2112,2013-04-12 06:31:00,
2013-04-11 23:36:00,47.9,45.1,29.86,WSW,255,0.0,0.0,90,0.00,,,0.00,LWC V2.00 B2112,2013-04-12 06:36:00,
2013-04-11 23:41:00,47.8,45.0,29.87,East,100,2.0,2.0,90,0.00,,,0.00,LWC V2.00 B2112,2013-04-12 06:41:00,
2013-04-11 23:46:00,47.9,45.4,29.87,NE,50,0.0,1.0,91,0.00,,,0.00,LWC V2.00 B2112,2013-04-12 06:46:00,
2013-04-11 23:51:00,47.8,45.0,29.87,East,81,0.0,1.0,90,0.00,,,0.00,LWC V2.00 B2112,2013-04-12 06:51:00,
2013-04-11 23:56:00,47.8,45.0,29.86,ESE,107,0.0,3.0,90,0.00,,,0.00,LWC V2.00 B2112,2013-04-12 06:56:00,